Regional Weather Roundup
Issued by NWS

Home | Current Version | Previous Version | Graphics & Text | Print | Product List | Glossary On
Versions: 1 2 3 4 5 6 7 8 9 10 11 12 13 14 15 16 17 18 19 20 21 22 23 24 25 26 27 28 29 30 31 32 33 34 35 36 37 38 39 40 41 42 43 44 45 46 47 48 49 50
000
ASUS43 KIND 251059
RWRIN

WEATHER ROUNDUP FOR INDIANA
NATIONAL WEATHER SERVICE INDIANAPOLIS IN
700 AM EDT MON JUL 25 2016

NOTE: "FAIR" INDICATES FEW OR NO CLOUDS BELOW 12,000 FEET WITH NO
SIGNIFICANT WEATHER AND/OR OBSTRUCTIONS TO VISIBILITY.

* - STATION DOES NOT REPORT WEATHER SUCH AS PRECIPITATION OR FOG.

+ - STATION NOT QUALITY CONTROLLED BY THE NATIONAL WEATHER SERVICE.
    USE DATA WITH CAUTION...ESPECIALLY DEWPOINT AND RELATIVE
    HUMIDITY OBSERVATIONS.

INZ001>003-010>013-019-020-251200-
NORTHWEST INDIANA

CITY           SKY/WX    TMP DP  RH WIND       PRES   REMARKS
GARY /AIRPORT/ MOCLDY    75 N/A N/A W12       29.96S
KNOX *+        CLOUDY    68  64  88 CALM      29.97S
MONTICELLO +   CLOUDY    69  65  87 NW5       29.98R

$$

LMZ046-743>745-251200-
SOUTHERN LAKE MICHIGAN

STATION/POSITION TIME  TEMP    WIND        PRES    WAVE
                       AIR SEA DIR/SP/G            HT
                 (UTC) (F)     (DEG/KT/KT) (MB)    (FT)
BURNS HARBOR     1002   74     260/ 13/ 18 1014.6R
MICHIGAN CITY    1000   74     230/ 15/ 17   N/A
5NW MICH CITY    1000   74 74  280/ 16/ 19   N/A     3

$$

INZ004-005-014>016-021>024-251200-
NORTH CENTRAL INDIANA

CITY           SKY/WX    TMP DP  RH WIND       PRES   REMARKS
GOSHEN         CLOUDY    71  66  84 SW6       29.98R
SOUTH BEND     CLOUDY    71  67  87 W5        29.97R

$$

INZ006>009-017-018-025>027-251200-
NORTHEAST INDIANA

CITY           SKY/WX    TMP DP  RH WIND       PRES   REMARKS
ANGOLA *+        N/A     72  64  78 W6        29.98R
FORT WAYNE     CLOUDY    70  67  90 W3        30.00R

$$

INZ028-029-035-036-043>045-051>053-251200-
WEST CENTRAL INDIANA

CITY           SKY/WX    TMP DP  RH WIND       PRES   REMARKS
CRAWFORDSVL +  CLOUDY    68  68 100 CALM      30.01R
LAFAYETTE      MOCLDY    69  69 100 SW3       30.00R
TERRE HAUTE    CLOUDY    71  68  90 W3        30.00R

$$

INZ030>032-037>040-046>048-054>057-064-065-251200-
CENTRAL INDIANA

CITY           SKY/WX    TMP DP  RH WIND       PRES   REMARKS
COLUMBUS       CLEAR     73  73 100 CALM      30.00  FOG
INDIANAPOLIS   CLOUDY    72  69  90 SW8       30.01R
-EAGLE CREEK   MOCLDY    73  68  84 S7        29.99R
KOKOMO *+      MOCLDY    72  63  73 W3        29.99R
SHELBYVILLE    CLOUDY    75  70  84 SW3       30.00R

$$

INZ033-034-041-042-049-050-058-059-251200-
EAST CENTRAL INDIANA

CITY           SKY/WX    TMP DP  RH WIND       PRES   REMARKS
MUNCIE         CLOUDY    75  66  73 S7        29.97S

$$

INZ060-061-067>069-081>083-085>088-251200-
SOUTHWEST INDIANA

CITY           SKY/WX    TMP DP  RH WIND       PRES   REMARKS
EVANSVILLE     CLOUDY    75  71  87 CALM      30.00S
HUNTINGBURG *+ CLOUDY    75  72  88 CALM      30.00R

$$

INZ062-063-066-070>080-084-089>092-251200-
SOUTH CENTRAL AND SOUTHEAST INDIANA

CITY           SKY/WX    TMP DP  RH WIND       PRES   REMARKS
BLOOMINGTON    CLOUDY    72  69  90 CALM      30.00R
MADISON *+     PTCLDY    75  73  94 CALM      30.02R

$$





USA.gov is the U.S. government's official web portal to all federal, state and local government web resources and services.